| time (UTC) | temp F | wind direction | speed MPH | gust MPH | rain 1hr in | rain 24hr in | rain mn in | humidity % | barometer mb |
| 20260903060038 | 81 | 164 | 3.0 | 9.0 | 0.00 | 0.01 | 0.00 | 76 | 1012.8 |
| 20260903055520 | 81 | 123 | 2.0 | 9.0 | 0.00 | 0.01 | 0.00 | 75 | 1013.0 |
| 20260903055022 | 81 | 113 | 3.0 | 8.0 | 0.00 | 0.01 | 0.00 | 75 | 1012.9 |
| 20260903054537 | 81 | 135 | 1.0 | 8.0 | 0.00 | 0.01 | 0.00 | 74 | 1012.9 |
| 20260903054021 | 81 | 167 | 1.0 | 8.0 | 0.00 | 0.01 | 0.00 | 74 | 1012.9 |
| 20260903053518 | 82 | 101 | 3.0 | 8.0 | 0.00 | 0.01 | 0.00 | 74 | 1013.0 |
| 20260903053037 | 82 | 129 | 3.0 | 8.0 | 0.00 | 0.01 | 0.00 | 73 | 1013.1 |
| 20260903052519 | 82 | 128 | 1.0 | 8.0 | 0.00 | 0.01 | 0.00 | 73 | 1013.0 |
| 20260903052020 | 82 | 98 | 2.0 | 10.0 | 0.00 | 0.01 | 0.00 | 73 | 1013.2 |
| 20260903051557 | 82 | 141 | 3.0 | 10.0 | 0.00 | 0.01 | 0.00 | 73 | 1013.3 |
| 20260903051022 | 82 | 117 | 3.0 | 9.0 | 0.00 | 0.01 | 0.00 | 72 | 1013.2 |
| 20260903050519 | 82 | 121 | 3.0 | 8.0 | 0.00 | 0.01 | 0.00 | 72 | 1013.4 |
| 20260903050039 | 82 | 96 | 3.0 | 9.0 | 0.00 | 0.01 | 0.00 | 72 | 1013.3 |
| 20260903045518 | 82 | 99 | 3.0 | 9.0 | 0.00 | 0.01 | 0.01 | 71 | 1013.4 |
| 20260903045024 | 83 | 102 | 3.0 | 13.0 | 0.00 | 0.01 | 0.01 | 71 | 1013.5 |
| 20260903044542 | 83 | 114 | 3.0 | 13.0 | 0.00 | 0.01 | 0.01 | 70 | 1013.4 |
| 20260903044018 | 83 | 116 | 3.0 | 9.0 | 0.00 | 0.01 | 0.01 | 70 | 1013.3 |
| 20260903043519 | 83 | 83 | 2.0 | 9.0 | 0.00 | 0.01 | 0.01 | 69 | 1013.2 |
| 20260903043131 | 83 | 118 | 3.0 | 10.0 | 0.00 | 0.01 | 0.01 | 69 | 1013.2 |
| 20260903042519 | 83 | 120 | 4.0 | 10.0 | 0.00 | 0.01 | 0.01 | 69 | 1013.3 |
| 20260903042017 | 84 | 80 | 2.0 | 9.0 | 0.00 | 0.01 | 0.01 | 68 | 1013.4 |
| 20260903041538 | 84 | 107 | 4.0 | 8.0 | 0.00 | 0.01 | 0.01 | 68 | 1013.4 |
| 20260903041019 | 84 | 127 | 2.0 | 8.0 | 0.00 | 0.01 | 0.01 | 68 | 1013.5 |
| 20260903040519 | 84 | 114 | 3.0 | 8.0 | 0.00 | 0.01 | 0.01 | 68 | 1013.4 |
| 20260903040038 | 84 | 141 | 2.0 | 9.0 | 0.00 | 0.01 | 0.01 | 67 | 1013.5 |
| 20260903035518 | 84 | 127 | 3.0 | 9.0 | 0.00 | 0.01 | 0.01 | 67 | 1013.6 |
| 20260903035017 | 84 | 132 | 2.0 | 6.0 | 0.00 | 0.01 | 0.01 | 66 | 1013.6 |
| 20260903034542 | 85 | 128 | 1.0 | 6.0 | 0.00 | 0.01 | 0.01 | 66 | 1013.5 |
| 20260903034020 | 85 | 129 | 2.0 | 6.0 | 0.00 | 0.01 | 0.01 | 66 | 1013.6 |
| 20260903033518 | 85 | 130 | 2.0 | 6.0 | 0.00 | 0.01 | 0.01 | 66 | 1013.6 |
| 20260903033039 | 85 | 114 | 2.0 | 7.0 | 0.00 | 0.01 | 0.01 | 65 | 1013.6 |
| 20260903032517 | 85 | 98 | 3.0 | 8.0 | 0.00 | 0.01 | 0.01 | 65 | 1013.5 |
| 20260903032017 | 85 | 127 | 2.0 | 12.0 | 0.00 | 0.01 | 0.01 | 64 | 1013.5 |
| 20260903031536 | 85 | 166 | 3.0 | 12.0 | 0.00 | 0.01 | 0.01 | 64 | 1013.5 |
| 20260903031019 | 86 | 96 | 2.0 | 10.0 | 0.00 | 0.01 | 0.01 | 64 | 1013.5 |
| 20260903030518 | 86 | 169 | 2.0 | 7.0 | 0.00 | 0.01 | 0.01 | 63 | 1013.6 |
| 20260903030038 | 86 | 104 | 3.0 | 7.0 | 0.00 | 0.01 | 0.01 | 63 | 1013.5 |
| 20260903025518 | 86 | 135 | 2.0 | 7.0 | 0.00 | 0.01 | 0.01 | 62 | 1013.5 |
| 20260903025017 | 86 | 108 | 2.0 | 11.0 | 0.00 | 0.01 | 0.01 | 62 | 1013.5 |
| 20260903024538 | 87 | 153 | 3.0 | 11.0 | 0.00 | 0.01 | 0.01 | 62 | 1013.5 |
| 20260903024020 | 87 | 136 | 4.0 | 10.0 | 0.00 | 0.01 | 0.01 | 61 | 1013.5 |
| 20260903023519 | 87 | 191 | 3.0 | 8.0 | 0.00 | 0.01 | 0.01 | 61 | 1013.4 |
| 20260903023041 | 87 | 129 | 1.0 | 7.0 | 0.00 | 0.01 | 0.01 | 60 | 1013.3 |
| 20260903022517 | 88 | 127 | 3.0 | 9.0 | 0.00 | 0.01 | 0.01 | 60 | 1013.3 |
| 20260903022020 | 88 | 110 | 3.0 | 10.0 | 0.00 | 0.01 | 0.01 | 60 | 1013.0 |
| 20260903021539 | 88 | 135 | 4.0 | 10.0 | 0.00 | 0.01 | 0.01 | 59 | 1012.9 |
| 20260903021018 | 89 | 173 | 2.0 | 6.0 | 0.00 | 0.01 | 0.01 | 59 | 1013.0 |
| 20260903020518 | 89 | 131 | 2.0 | 7.0 | 0.00 | 0.01 | 0.01 | 58 | 1012.9 |
| 20260903020035 | 89 | 135 | 2.0 | 7.0 | 0.00 | 0.01 | 0.01 | 58 | 1012.7 |
| 20260903015522 | 89 | 121 | 1.0 | 8.0 | 0.00 | 0.01 | 0.01 | 57 | 1012.7 |
| 20260903015018 | 90 | 164 | 2.0 | 8.0 | 0.00 | 0.01 | 0.01 | 56 | 1012.7 |
| 20260903014541 | 90 | 127 | 1.0 | 7.0 | 0.00 | 0.01 | 0.01 | 55 | 1012.5 |
| 20260903014017 | 90 | 121 | 1.0 | 4.0 | 0.00 | 0.01 | 0.01 | 54 | 1012.4 |
| 20260903013523 | 90 | 171 | 1.0 | 9.0 | 0.00 | 0.01 | 0.01 | 55 | 1012.3 |
| 20260903013045 | 90 | 117 | 2.0 | 9.0 | 0.00 | 0.01 | 0.01 | 54 | 1012.2 |
| 20260903012518 | 90 | 0 | 2.0 | 7.0 | 0.00 | 0.01 | 0.01 | 55 | 1012.1 |
| 20260903012019 | 90 | 116 | 2.0 | 6.0 | 0.00 | 0.01 | 0.01 | 55 | 1012.1 |
| 20260903011537 | 90 | 198 | 1.0 | 5.0 | 0.00 | 0.01 | 0.01 | 58 | 1012.1 |
| 20260903011019 | 91 | 134 | 1.0 | 5.0 | 0.00 | 0.01 | 0.01 | 56 | 1012.0 |
| 20260903010523 | 91 | 121 | 1.0 | 5.0 | 0.00 | 0.01 | 0.01 | 54 | 1012.0 |
| 20260903010040 | 91 | 150 | 1.0 | 5.0 | 0.00 | 0.01 | 0.01 | 54 | 1011.9 |
| 20260903005519 | 91 | 112 | 2.0 | 5.0 | 0.00 | 0.01 | 0.01 | 54 | 1011.8 |
| 20260903005019 | 92 | 0 | 0.0 | 7.0 | 0.00 | 0.01 | 0.01 | 54 | 1011.9 |
| 20260903004537 | 92 | 105 | 0.0 | 7.0 | 0.00 | 0.01 | 0.01 | 55 | 1011.9 |
| 20260903004017 | 92 | 131 | 1.0 | 6.0 | 0.00 | 0.01 | 0.01 | 55 | 1011.9 |
| 20260903003519 | 92 | 147 | 1.0 | 6.0 | 0.00 | 0.01 | 0.01 | 55 | 1012.0 |
| 20260903003037 | 92 | 120 | 1.0 | 6.0 | 0.00 | 0.01 | 0.01 | 56 | 1012.0 |
| 20260903002521 | 92 | 143 | 1.0 | 10.0 | 0.00 | 0.01 | 0.01 | 57 | 1011.9 |
| 20260903002020 | 92 | 112 | 2.0 | 10.0 | 0.01 | 0.01 | 0.01 | 57 | 1012.0 |
| 20260903001539 | 91 | 187 | 0.0 | 4.0 | 0.01 | 0.01 | 0.01 | 58 | 1011.9 |
| 20260903001018 | 91 | 0 | 0.0 | 4.0 | 0.01 | 0.01 | 0.01 | 59 | 1011.8 |
| 20260903000517 | 91 | 123 | 1.0 | 4.0 | 0.01 | 0.01 | 0.01 | 59 | 1011.8 |
| 20260903000038 | 91 | 123 | 1.0 | 4.0 | 0.01 | 0.01 | 0.01 | 60 | 1011.7 |
| 20260902235519 | 91 | 123 | 1.0 | 4.0 | 0.01 | 0.01 | 0.01 | 60 | 1011.9 |
| 20260902235022 | 90 | 138 | 1.0 | 4.0 | 0.01 | 0.01 | 0.01 | 63 | 1011.9 |
| 20260902234543 | 89 | 146 | 1.0 | 3.0 | 0.01 | 0.01 | 0.01 | 67 | 1011.9 |
| 20260902234017 | 88 | 110 | 1.0 | 3.0 | 0.01 | 0.01 | 0.01 | 70 | 1012.0 |
| 20260902233521 | 87 | 0 | 1.0 | 2.0 | 0.01 | 0.01 | 0.01 | 75 | 1012.0 |
| 20260902233037 | 87 | 0 | 0.0 | 1.0 | 0.01 | 0.01 | 0.01 | 74 | 1012.0 |
| 20260902232518 | 88 | 0 | 0.0 | 4.0 | 0.01 | 0.01 | 0.01 | 72 | 1011.9 |
| 20260902232018 | 92 | 0 | 1.0 | 11.0 | 0.00 | 0.00 | 0.00 | 64 | 1011.9 |
| 20260902231536 | 95 | 146 | 5.0 | 11.0 | 0.00 | 0.00 | 0.00 | 51 | 1012.0 |
| 20260902231020 | 96 | 135 | 4.0 | 10.0 | 0.00 | 0.00 | 0.00 | 46 | 1012.0 |
| 20260902230518 | 98 | 124 | 3.0 | 8.0 | 0.00 | 0.00 | 0.00 | 44 | 1011.9 |
| 20260902230036 | 99 | 91 | 2.0 | 8.0 | 0.00 | 0.00 | 0.00 | 43 | 1011.8 |
| 20260902225520 | 99 | 123 | 3.0 | 8.0 | 0.00 | 0.00 | 0.00 | 42 | 1011.9 |
| 20260902225019 | 99 | 64 | 2.0 | 8.0 | 0.00 | 0.00 | 0.00 | 41 | 1011.7 |
| 20260902224544 | 99 | 76 | 2.0 | 8.0 | 0.00 | 0.00 | 0.00 | 41 | 1011.5 |
| 20260902224019 | 99 | 110 | 3.0 | 7.0 | 0.00 | 0.00 | 0.00 | 40 | 1011.4 |
| 20260902223521 | 100 | 358 | 1.0 | 7.0 | 0.00 | 0.00 | 0.00 | 40 | 1011.5 |
| 20260902223036 | 101 | 108 | 2.0 | 7.0 | 0.00 | 0.00 | 0.00 | 39 | 1011.5 |
| 20260902222517 | 100 | 56 | 1.0 | 10.0 | 0.00 | 0.00 | 0.00 | 39 | 1011.5 |
| 20260902222023 | 101 | 94 | 3.0 | 10.0 | 0.00 | 0.00 | 0.00 | 38 | 1011.6 |
| 20260902221537 | 101 | 0 | 1.0 | 6.0 | 0.00 | 0.00 | 0.00 | 38 | 1011.6 |
| 20260902221020 | 102 | 56 | 1.0 | 9.0 | 0.00 | 0.00 | 0.00 | 37 | 1011.7 |
| 20260902220520 | 103 | 54 | 3.0 | 9.0 | 0.00 | 0.00 | 0.00 | 37 | 1011.7 |
| 20260902220040 | 102 | 53 | 3.0 | 5.0 | 0.00 | 0.00 | 0.00 | 37 | 1011.7 |
| 20260902215525 | 102 | 54 | 1.0 | 5.0 | 0.00 | 0.00 | 0.00 | 37 | 1011.7 |
| 20260902215019 | 103 | 53 | 2.0 | 6.0 | 0.00 | 0.00 | 0.00 | 37 | 1011.8 |
| 20260902214536 | 102 | 6 | 2.0 | 6.0 | 0.00 | 0.00 | 0.00 | 38 | 1011.8 |
| 20260902214017 | 101 | 82 | 2.0 | 8.0 | 0.00 | 0.00 | 0.00 | 39 | 1011.9 |
| 20260902213516 | 102 | 118 | 3.0 | 8.0 | 0.00 | 0.00 | 0.00 | 37 | 1012.0 |
| 20260902213036 | 101 | 153 | 2.0 | 6.0 | 0.00 | 0.00 | 0.00 | 38 | 1012.1 |
| 20260902212518 | 102 | 4 | 3.0 | 7.0 | 0.00 | 0.00 | 0.00 | 38 | 1012.0 |
| 20260902212020 | 102 | 0 | 1.0 | 7.0 | 0.00 | 0.00 | 0.00 | 39 | 1012.1 |
| 20260902211539 | 102 | 52 | 2.0 | 6.0 | 0.00 | 0.00 | 0.00 | 38 | 1012.2 |
| 20260902211020 | 101 | 89 | 2.0 | 10.0 | 0.00 | 0.00 | 0.00 | 39 | 1012.2 |
| 20260902210520 | 100 | 343 | 3.0 | 10.0 | 0.00 | 0.00 | 0.00 | 40 | 1012.3 |
| 20260902210035 | 101 | 110 | 2.0 | 8.0 | 0.00 | 0.00 | 0.00 | 39 | 1012.4 |
| 20260902205519 | 101 | 66 | 3.0 | 8.0 | 0.00 | 0.00 | 0.00 | 39 | 1012.6 |
| 20260902205017 | 101 | 131 | 2.0 | 5.0 | 0.00 | 0.00 | 0.00 | 40 | 1012.7 |
| 20260902204540 | 101 | 116 | 0.0 | 9.0 | 0.00 | 0.00 | 0.00 | 39 | 1012.7 |
| 20260902204018 | 101 | 0 | 2.0 | 9.0 | 0.00 | 0.00 | 0.00 | 39 | 1012.8 |
| 20260902203517 | 101 | 109 | 2.0 | 9.0 | 0.00 | 0.00 | 0.00 | 40 | 1012.8 |
| 20260902203038 | 100 | 98 | 2.0 | 9.0 | 0.00 | 0.00 | 0.00 | 41 | 1012.8 |
| 20260902202518 | 100 | 110 | 3.0 | 7.0 | 0.00 | 0.00 | 0.00 | 41 | 1012.9 |
| 20260902202020 | 100 | 93 | 1.0 | 4.0 | 0.00 | 0.00 | 0.00 | 42 | 1012.9 |
| 20260902201544 | 99 | 0 | 1.0 | 9.0 | 0.00 | 0.00 | 0.00 | 42 | 1013.0 |
| 20260902201020 | 100 | 62 | 2.0 | 12.0 | 0.00 | 0.00 | 0.00 | 41 | 1013.2 |
| 20260902200518 | 100 | 98 | 2.0 | 12.0 | 0.00 | 0.00 | 0.00 | 42 | 1013.2 |
| 20260902200051 | 98 | 42 | 2.0 | 8.0 | 0.00 | 0.00 | 0.00 | 43 | 1013.3 |
| 20260902195520 | 99 | 114 | 2.0 | 7.0 | 0.00 | 0.00 | 0.00 | 42 | 1013.4 |
| 20260902195019 | 99 | 78 | 2.0 | 7.0 | 0.00 | 0.00 | 0.00 | 42 | 1013.4 |
| 20260902194538 | 99 | 164 | 1.0 | 7.0 | 0.00 | 0.00 | 0.00 | 42 | 1013.5 |
| 20260902194018 | 98 | 91 | 1.0 | 6.0 | 0.00 | 0.00 | 0.00 | 42 | 1013.6 |
| 20260902193518 | 98 | 288 | 2.0 | 7.0 | 0.00 | 0.00 | 0.00 | 42 | 1013.6 |
| 20260902193037 | 98 | 0 | 2.0 | 7.0 | 0.00 | 0.00 | 0.00 | 43 | 1013.7 |
| 20260902192518 | 98 | 0 | 1.0 | 6.0 | 0.00 | 0.00 | 0.00 | 44 | 1013.8 |
| 20260902192019 | 97 | 25 | 2.0 | 6.0 | 0.00 | 0.00 | 0.00 | 45 | 1013.9 |
| 20260902191541 | 97 | 358 | 1.0 | 5.0 | 0.00 | 0.00 | 0.00 | 46 | 1014.0 |
| 20260902191020 | 97 | 97 | 1.0 | 6.0 | 0.00 | 0.00 | 0.00 | 46 | 1014.0 |
| 20260902190519 | 97 | 6 | 1.0 | 8.0 | 0.00 | 0.00 | 0.00 | 47 | 1014.1 |
| 20260902190057 | 97 | 54 | 3.0 | 8.0 | 0.00 | 0.00 | 0.00 | 48 | 1014.0 |
| 20260902185517 | 96 | 0 | 0.0 | 5.0 | 0.00 | 0.00 | 0.00 | 48 | 1014.1 |
| 20260902185019 | 96 | 0 | 2.0 | 5.0 | 0.00 | 0.00 | 0.00 | 48 | 1014.2 |
| 20260902184540 | 95 | 85 | 1.0 | 7.0 | 0.00 | 0.00 | 0.00 | 48 | 1014.2 |
| 20260902184018 | 96 | 0 | 3.0 | 7.0 | 0.00 | 0.00 | 0.00 | 48 | 1014.3 |
| 20260902183524 | 96 | 29 | 2.0 | 6.0 | 0.00 | 0.00 | 0.00 | 49 | 1014.4 |
| 20260902183037 | 95 | 0 | 0.0 | 6.0 | 0.00 | 0.00 | 0.00 | 48 | 1014.4 |
| 20260902182517 | 95 | 73 | 0.0 | 4.0 | 0.00 | 0.00 | 0.00 | 50 | 1014.6 |
| 20260902182024 | 96 | 0 | 0.0 | 4.0 | 0.00 | 0.00 | 0.00 | 49 | 1014.6 |
| 20260902181536 | 96 | 35 | 1.0 | 6.0 | 0.00 | 0.00 | 0.00 | 49 | 1014.9 |
| 20260902181022 | 96 | 90 | 1.0 | 8.0 | 0.00 | 0.00 | 0.00 | 48 | 1015.1 |
| 20260902180520 | 95 | 129 | 2.0 | 8.0 | 0.00 | 0.00 | 0.00 | 48 | 1015.2 |
| 20260902180037 | 95 | 102 | 2.0 | 7.0 | 0.00 | 0.00 | 0.00 | 49 | 1015.2 |
| 20260902175521 | 95 | 106 | 2.0 | 7.0 | 0.00 | 0.00 | 0.00 | 49 | 1015.3 |
| 20260902175020 | 94 | 0 | 1.0 | 5.0 | 0.00 | 0.00 | 0.00 | 52 | 1015.4 |
| 20260902174537 | 94 | 129 | 2.0 | 7.0 | 0.00 | 0.00 | 0.00 | 50 | 1015.5 |
| 20260902174018 | 94 | 156 | 2.0 | 7.0 | 0.00 | 0.00 | 0.00 | 49 | 1015.6 |
| 20260902173520 | 94 | 73 | 1.0 | 7.0 | 0.00 | 0.00 | 0.00 | 50 | 1015.6 |
| 20260902173040 | 95 | 0 | 2.0 | 9.0 | 0.00 | 0.00 | 0.00 | 49 | 1015.7 |
| 20260902172519 | 95 | 166 | 2.0 | 9.0 | 0.00 | 0.00 | 0.00 | 49 | 1015.8 |
| 20260902172025 | 94 | 0 | 0.0 | 4.0 | 0.00 | 0.00 | 0.00 | 52 | 1015.8 |
| 20260902171537 | 94 | 0 | 2.0 | 5.0 | 0.00 | 0.00 | 0.00 | 52 | 1015.8 |
| 20260902171023 | 94 | 123 | 1.0 | 5.0 | 0.00 | 0.00 | 0.00 | 53 | 1016.0 |
| 20260902170518 | 94 | 51 | 1.0 | 6.0 | 0.00 | 0.00 | 0.00 | 52 | 1016.0 |
| 20260902170041 | 92 | 43 | 1.0 | 6.0 | 0.00 | 0.00 | 0.00 | 55 | 1016.0 |
| 20260902165520 | 94 | 0 | 1.0 | 6.0 | 0.00 | 0.00 | 0.00 | 51 | 1016.1 |
| 20260902165020 | 94 | 131 | 1.0 | 6.0 | 0.00 | 0.00 | 0.00 | 53 | 1016.0 |
| 20260902164541 | 93 | 116 | 0.0 | 6.0 | 0.00 | 0.00 | 0.00 | 53 | 1015.9 |
| 20260902164019 | 92 | 133 | 0.0 | 6.0 | 0.00 | 0.00 | 0.00 | 55 | 1015.9 |
| 20260902163516 | 92 | 0 | 2.0 | 6.0 | 0.00 | 0.00 | 0.00 | 54 | 1016.1 |
| 20260902163035 | 92 | 0 | 0.0 | 4.0 | 0.00 | 0.00 | 0.00 | 54 | 1016.1 |
| 20260902162518 | 92 | 142 | 0.0 | 5.0 | 0.00 | 0.00 | 0.00 | 55 | 1016.1 |
| 20260902162020 | 92 | 62 | 2.0 | 5.0 | 0.00 | 0.00 | 0.00 | 57 | 1016.2 |
| 20260902161543 | 91 | 71 | 1.0 | 5.0 | 0.00 | 0.00 | 0.00 | 60 | 1016.2 |
| 20260902161018 | 91 | 173 | 1.0 | 6.0 | 0.00 | 0.00 | 0.00 | 58 | 1016.2 |
| 20260902160522 | 90 | 242 | 1.0 | 6.0 | 0.00 | 0.00 | 0.00 | 59 | 1016.2 |
| 20260902160037 | 90 | 0 | 0.0 | 6.0 | 0.00 | 0.00 | 0.00 | 60 | 1016.2 |
| 20260902155517 | 90 | 0 | 2.0 | 6.0 | 0.00 | 0.00 | 0.00 | 59 | 1016.2 |
| 20260902155020 | 91 | 83 | 1.0 | 4.0 | 0.00 | 0.00 | 0.00 | 60 | 1016.3 |
| 20260902154536 | 90 | 0 | 0.0 | 4.0 | 0.00 | 0.00 | 0.00 | 61 | 1016.3 |
| 20260902154017 | 89 | 0 | 1.0 | 5.0 | 0.00 | 0.00 | 0.00 | 62 | 1016.3 |
| 20260902153517 | 89 | 0 | 1.0 | 6.0 | 0.00 | 0.00 | 0.00 | 64 | 1016.3 |
| 20260902153038 | 88 | 0 | 1.0 | 6.0 | 0.00 | 0.00 | 0.00 | 65 | 1016.3 |
| 20260902152517 | 87 | 173 | 0.0 | 4.0 | 0.00 | 0.00 | 0.00 | 66 | 1016.2 |
| 20260902152020 | 87 | 195 | 0.0 | 6.0 | 0.00 | 0.00 | 0.00 | 66 | 1016.2 |
| 20260902151536 | 86 | 0 | 0.0 | 6.0 | 0.00 | 0.00 | 0.00 | 67 | 1016.2 |
| 20260902151018 | 86 | 81 | 0.0 | 4.0 | 0.00 | 0.00 | 0.00 | 68 | 1016.1 |
| 20260902150521 | 85 | 0 | 0.0 | 3.0 | 0.00 | 0.00 | 0.00 | 68 | 1016.2 |
| 20260902150037 | 85 | 116 | 0.0 | 3.0 | 0.00 | 0.00 | 0.00 | 69 | 1016.1 |
| 20260902145518 | 85 | 0 | 0.0 | 4.0 | 0.00 | 0.00 | 0.00 | 70 | 1016.0 |
| 20260902145023 | 85 | 73 | 1.0 | 4.0 | 0.00 | 0.00 | 0.00 | 70 | 1016.0 |
| 20260902144535 | 84 | 0 | 0.0 | 3.0 | 0.00 | 0.00 | 0.00 | 71 | 1016.0 |
| 20260902144019 | 84 | 0 | 0.0 | 3.0 | 0.00 | 0.00 | 0.00 | 71 | 1016.1 |
| 20260902143516 | 84 | 0 | 0.0 | 3.0 | 0.00 | 0.00 | 0.00 | 72 | 1016.1 |
| 20260902143041 | 83 | 0 | 0.0 | 5.0 | 0.00 | 0.00 | 0.00 | 73 | 1015.9 |
| 20260902142520 | 83 | 0 | 0.0 | 5.0 | 0.00 | 0.00 | 0.00 | 74 | 1016.0 |
| 20260902142020 | 83 | 0 | 0.0 | 4.0 | 0.00 | 0.00 | 0.00 | 74 | 1016.0 |
| 20260902141538 | 83 | 199 | 0.0 | 4.0 | 0.00 | 0.00 | 0.00 | 74 | 1016.1 |
| 20260902141022 | 82 | 0 | 1.0 | 4.0 | 0.00 | 0.00 | 0.00 | 74 | 1016.1 |
| 20260902140518 | 82 | 223 | 1.0 | 4.0 | 0.00 | 0.00 | 0.00 | 74 | 1016.0 |
| 20260902140041 | 83 | 0 | 0.0 | 3.0 | 0.00 | 0.00 | 0.00 | 74 | 1016.0 |
| 20260902135520 | 83 | 0 | 0.0 | 3.0 | 0.00 | 0.00 | 0.00 | 73 | 1016.0 |
| 20260902135019 | 83 | 0 | 0.0 | 3.0 | 0.00 | 0.00 | 0.00 | 73 | 1015.9 |
| 20260902134540 | 82 | 0 | 0.0 | 5.0 | 0.00 | 0.00 | 0.00 | 73 | 1015.9 |
| 20260902134018 | 82 | 205 | 0.0 | 5.0 | 0.00 | 0.00 | 0.00 | 73 | 1015.9 |
| 20260902133518 | 82 | 0 | 0.0 | 3.0 | 0.00 | 0.00 | 0.00 | 73 | 1015.9 |
| 20260902133035 | 82 | 136 | 0.0 | 4.0 | 0.00 | 0.00 | 0.00 | 73 | 1015.9 |
| 20260902132524 | 82 | 0 | 0.0 | 4.0 | 0.00 | 0.00 | 0.00 | 73 | 1015.9 |
| 20260902132018 | 82 | 132 | 0.0 | 3.0 | 0.00 | 0.00 | 0.00 | 72 | 1016.0 |
| 20260902131539 | 82 | 0 | 0.0 | 3.0 | 0.00 | 0.00 | 0.00 | 73 | 1015.9 |
| 20260902131020 | 81 | 0 | 0.0 | 5.0 | 0.00 | 0.00 | 0.00 | 73 | 1016.0 |
| 20260902130520 | 81 | 0 | 0.0 | 5.0 | 0.00 | 0.00 | 0.00 | 73 | 1015.9 |
| 20260902130041 | 81 | 198 | 0.0 | 3.0 | 0.00 | 0.00 | 0.00 | 73 | 1015.8 |
| 20260902125517 | 81 | 201 | 0.0 | 4.0 | 0.00 | 0.00 | 0.00 | 73 | 1015.7 |
| 20260902125019 | 81 | 160 | 0.0 | 4.0 | 0.00 | 0.00 | 0.00 | 74 | 1015.7 |
| 20260902124543 | 81 | 0 | 0.0 | 3.0 | 0.00 | 0.00 | 0.00 | 74 | 1015.6 |
| 20260902124017 | 80 | 0 | 0.0 | 2.0 | 0.00 | 0.00 | 0.00 | 75 | 1015.6 |
| 20260902123521 | 80 | 0 | 0.0 | 0.0 | 0.00 | 0.00 | 0.00 | 74 | 1015.5 |
| 20260902123040 | 80 | 0 | 0.0 | 1.0 | 0.00 | 0.00 | 0.00 | 74 | 1015.4 |
| 20260902122521 | 80 | 0 | 0.0 | 1.0 | 0.00 | 0.00 | 0.00 | 74 | 1015.4 |
| 20260902122020 | 80 | 0 | 0.0 | 2.0 | 0.00 | 0.00 | 0.00 | 74 | 1015.4 |
| 20260902121539 | 80 | 0 | 0.0 | 2.0 | 0.00 | 0.00 | 0.00 | 74 | 1015.4 |
| 20260902121019 | 80 | 0 | 0.0 | 0.0 | 0.00 | 0.00 | 0.00 | 74 | 1015.3 |
| 20260902120518 | 80 | 0 | 0.0 | 2.0 | 0.00 | 0.00 | 0.00 | 74 | 1015.3 |
| 20260902120035 | 80 | 0 | 0.0 | 2.0 | 0.00 | 0.00 | 0.00 | 74 | 1015.3 |
| 20260902115519 | 80 | 0 | 0.0 | 2.0 | 0.00 | 0.00 | 0.00 | 73 | 1015.3 |
| 20260902115019 | 80 | 0 | 0.0 | 2.0 | 0.00 | 0.00 | 0.00 | 73 | 1015.4 |
| 20260902114538 | 80 | 0 | 0.0 | 1.0 | 0.00 | 0.00 | 0.00 | 73 | 1015.5 |
| 20260902114017 | 80 | 0 | 0.0 | 1.0 | 0.00 | 0.00 | 0.00 | 73 | 1015.4 |
| 20260902113518 | 80 | 0 | 0.0 | 0.0 | 0.00 | 0.00 | 0.00 | 74 | 1015.5 |
| 20260902113037 | 80 | 0 | 0.0 | 0.0 | 0.00 | 0.00 | 0.00 | 74 | 1015.5 |
| 20260902112520 | 80 | 0 | 0.0 | 0.0 | 0.00 | 0.00 | 0.00 | 74 | 1015.5 |
| 20260902112020 | 80 | 0 | 0.0 | 0.0 | 0.00 | 0.00 | 0.00 | 74 | 1015.5 |
| 20260902111545 | 80 | 0 | 0.0 | 0.0 | 0.00 | 0.00 | 0.00 | 73 | 1015.4 |
| 20260902111023 | 80 | 0 | 0.0 | 0.0 | 0.00 | 0.00 | 0.00 | 73 | 1015.4 |
| 20260902110518 | 80 | 0 | 0.0 | 0.0 | 0.00 | 0.00 | 0.00 | 73 | 1015.5 |
| 20260902110037 | 80 | 0 | 0.0 | 0.0 | 0.00 | 0.00 | 0.00 | 72 | 1015.4 |
| 20260902105521 | 81 | 0 | 0.0 | 0.0 | 0.00 | 0.00 | 0.00 | 72 | 1015.4 |
| 20260902105019 | 81 | 0 | 0.0 | 0.0 | 0.00 | 0.00 | 0.00 | 71 | 1015.4 |
| 20260902104542 | 81 | 0 | 0.0 | 0.0 | 0.00 | 0.00 | 0.00 | 72 | 1015.4 |
| 20260902104020 | 81 | 0 | 0.0 | 0.0 | 0.00 | 0.00 | 0.00 | 71 | 1015.3 |
| 20260902103518 | 81 | 0 | 0.0 | 1.0 | 0.00 | 0.00 | 0.00 | 71 | 1015.4 |
| 20260902103039 | 81 | 0 | 0.0 | 1.0 | 0.00 | 0.00 | 0.00 | 71 | 1015.4 |
| 20260902102519 | 81 | 0 | 0.0 | 2.0 | 0.00 | 0.00 | 0.00 | 71 | 1015.4 |
| 20260902102020 | 81 | 0 | 0.0 | 2.0 | 0.00 | 0.00 | 0.00 | 71 | 1015.4 |
| 20260902101540 | 81 | 0 | 0.0 | 1.0 | 0.00 | 0.00 | 0.00 | 70 | 1015.4 |
| 20260902101017 | 81 | 0 | 0.0 | 3.0 | 0.00 | 0.00 | 0.00 | 70 | 1015.4 |
| 20260902100518 | 81 | 0 | 0.0 | 3.0 | 0.00 | 0.00 | 0.00 | 70 | 1015.4 |
| 20260902100035 | 81 | 0 | 0.0 | 0.0 | 0.00 | 0.00 | 0.00 | 70 | 1015.4 |
| 20260902095519 | 82 | 0 | 0.0 | 0.0 | 0.00 | 0.00 | 0.00 | 70 | 1015.3 |
| 20260902095019 | 82 | 0 | 0.0 | 1.0 | 0.00 | 0.00 | 0.00 | 69 | 1015.3 |
| 20260902094545 | 82 | 0 | 0.0 | 4.0 | 0.00 | 0.00 | 0.00 | 69 | 1015.4 |
| 20260902094018 | 82 | 0 | 0.0 | 4.0 | 0.00 | 0.00 | 0.00 | 69 | 1015.3 |
| 20260902093517 | 82 | 0 | 0.0 | 4.0 | 0.00 | 0.00 | 0.00 | 69 | 1015.2 |
| 20260902093037 | 82 | 214 | 0.0 | 4.0 | 0.00 | 0.00 | 0.00 | 69 | 1015.3 |
| 20260902092519 | 82 | 0 | 0.0 | 4.0 | 0.00 | 0.00 | 0.00 | 69 | 1015.2 |
| 20260902092023 | 82 | 204 | 0.0 | 3.0 | 0.00 | 0.00 | 0.00 | 69 | 1015.3 |
| 20260902091543 | 82 | 0 | 0.0 | 0.0 | 0.00 | 0.00 | 0.00 | 69 | 1015.2 |
| 20260902091018 | 82 | 0 | 0.0 | 4.0 | 0.00 | 0.00 | 0.00 | 68 | 1015.2 |
| 20260902090516 | 82 | 0 | 0.0 | 4.0 | 0.00 | 0.00 | 0.00 | 68 | 1015.2 |
| 20260902090035 | 82 | 197 | 0.0 | 0.0 | 0.00 | 0.00 | 0.00 | 68 | 1015.3 |
| 20260902085519 | 82 | 0 | 0.0 | 0.0 | 0.00 | 0.00 | 0.00 | 68 | 1015.1 |
| 20260902085018 | 83 | 0 | 0.0 | 1.0 | 0.00 | 0.00 | 0.00 | 67 | 1015.1 |
| 20260902084536 | 83 | 0 | 0.0 | 1.0 | 0.00 | 0.00 | 0.00 | 67 | 1015.0 |
| 20260902084020 | 83 | 0 | 0.0 | 1.0 | 0.00 | 0.00 | 0.00 | 66 | 1015.1 |
| 20260902083520 | 83 | 0 | 0.0 | 4.0 | 0.00 | 0.00 | 0.00 | 66 | 1015.1 |
| 20260902083036 | 84 | 0 | 0.0 | 5.0 | 0.00 | 0.00 | 0.00 | 65 | 1015.0 |
| 20260902082517 | 84 | 207 | 0.0 | 5.0 | 0.00 | 0.00 | 0.00 | 65 | 1015.0 |
| 20260902082019 | 84 | 0 | 1.0 | 5.0 | 0.00 | 0.00 | 0.00 | 65 | 1015.0 |
| 20260902081547 | 84 | 0 | 0.0 | 5.0 | 0.00 | 0.00 | 0.00 | 65 | 1015.0 |
| 20260902081018 | 84 | 0 | 1.0 | 5.0 | 0.00 | 0.00 | 0.00 | 65 | 1015.0 |
| 20260902080519 | 84 | 0 | 1.0 | 7.0 | 0.00 | 0.00 | 0.00 | 64 | 1015.0 |
| 20260902080036 | 84 | 187 | 1.0 | 7.0 | 0.00 | 0.00 | 0.00 | 64 | 1015.0 |
| 20260902075519 | 84 | 0 | 1.0 | 5.0 | 0.00 | 0.00 | 0.00 | 64 | 1015.0 |
| 20260902075017 | 84 | 0 | 2.0 | 5.0 | 0.00 | 0.00 | 0.00 | 64 | 1015.1 |
| 20260902074537 | 84 | 206 | 0.0 | 5.0 | 0.00 | 0.00 | 0.00 | 64 | 1015.1 |
| 20260902074019 | 85 | 0 | 0.0 | 5.0 | 0.00 | 0.00 | 0.00 | 63 | 1015.1 |
| 20260902073520 | 85 | 0 | 0.0 | 5.0 | 0.00 | 0.00 | 0.00 | 63 | 1015.1 |
| 20260902073036 | 85 | 171 | 1.0 | 9.0 | 0.00 | 0.00 | 0.00 | 63 | 1015.1 |
| 20260902072516 | 85 | 0 | 3.0 | 9.0 | 0.00 | 0.00 | 0.00 | 63 | 1015.1 |
| 20260902072018 | 85 | 209 | 1.0 | 7.0 | 0.00 | 0.00 | 0.00 | 63 | 1015.2 |
| 20260902071535 | 85 | 0 | 2.0 | 7.0 | 0.00 | 0.00 | 0.00 | 63 | 1015.1 |
| 20260902071018 | 85 | 0 | 0.0 | 5.0 | 0.00 | 0.00 | 0.00 | 63 | 1015.2 |
| 20260902070520 | 85 | 208 | 1.0 | 6.0 | 0.00 | 0.00 | 0.00 | 63 | 1015.2 |
| 20260902070036 | 85 | 0 | 3.0 | 7.0 | 0.00 | 0.00 | 0.00 | 63 | 1015.3 |
| 20260902065521 | 85 | 0 | 3.0 | 7.0 | 0.00 | 0.00 | 0.00 | 63 | 1015.3 |
| 20260902065017 | 85 | 215 | 3.0 | 8.0 | 0.00 | 0.00 | 0.00 | 64 | 1015.3 |
| 20260902064539 | 85 | 212 | 1.0 | 8.0 | 0.00 | 0.00 | 0.00 | 64 | 1015.3 |
| 20260902064019 | 85 | 0 | 1.0 | 7.0 | 0.00 | 0.00 | 0.00 | 64 | 1015.2 |
| 20260902063520 | 85 | 217 | 3.0 | 10.0 | 0.00 | 0.00 | 0.00 | 64 | 1015.3 |
| 20260902063034 | 85 | 183 | 4.0 | 10.0 | 0.00 | 0.00 | 0.00 | 64 | 1015.3 |
| 20260902062519 | 86 | 187 | 3.0 | 8.0 | 0.00 | 0.00 | 0.00 | 64 | 1015.3 |
| 20260902062019 | 86 | 193 | 2.0 | 9.0 | 0.00 | 0.00 | 0.00 | 64 | 1015.2 |
| 20260902061544 | 86 | 179 | 3.0 | 9.0 | 0.00 | 0.00 | 0.00 | 64 | 1015.3 |
| 20260902061021 | 86 | 208 | 3.0 | 8.0 | 0.00 | 0.00 | 0.00 | 64 | 1015.2 |
| 20260902060517 | 86 | 199 | 1.0 | 11.0 | 0.00 | 0.00 | 0.00 | 64 | 1015.2 |